CDT,Max TemperatureF,Mean TemperatureF,Min TemperatureF,Max Dew PointF,MeanDew PointF,Min DewpointF,Max Humidity, Mean Humidity, Min Humidity, Max Sea Level PressureIn, Mean Sea Level PressureIn, Min Sea Level PressureIn, Max VisibilityMiles, Mean VisibilityMiles, Min VisibilityMiles, Max Wind SpeedMPH, Mean Wind SpeedMPH, Max Gust SpeedMPH,PrecipitationIn, CloudCover, Events, WindDirDegrees
2014-3-1,35,28,20,28,23,17,91,77,63,30.29,30.18,30.04,10,6,2,20,12,23,T,7,Rain,337
2014-3-2,21,14,6,18,8,-5,88,75,61,30.43,30.32,30.24,10,6,1,24,17,29,0.06,6,Rain-Snow,358
2014-3-3,19,10,1,4,-2,-9,67,58,49,30.52,30.46,30.39,10,10,10,21,11,26,0.00,0,,36
2014-3-4,33,21,9,22,14,4,83,71,58,30.38,30.27,30.19,10,10,8,13,6,16,0.00,1,,155
2014-3-5,32,27,21,20,17,14,92,73,54,30.38,30.32,30.23,10,9,6,21,14,26,0.00,2,,56
2014-3-6,41,30,19,25,19,13,92,70,48,30.36,30.22,30.07,10,8,3,14,9,,0.00,0,,61
2014-3-7,53,38,23,36,28,21,92,68,44,30.09,30.01,29.93,10,5,2,15,7,19,0.00,0,,158
2014-3-8,38,33,27,33,29,24,92,81,69,30.29,30.14,29.97,10,6,2,21,11,26,0.00,6,,359
2014-3-9,47,36,24,33,28,20,92,75,58,30.31,30.19,29.94,9,6,2,21,11,26,0.00,2,,226
2014-3-10,63,50,36,45,38,32,89,71,53,29.94,29.81,29.71,10,8,6,21,12,25,0.00,1,,223
2014-3-11,67,51,34,49,39,32,96,71,45,29.70,29.64,29.55,10,6,2,32,10,39,0.34,0,Rain,106
2014-3-12,39,31,23,36,29,19,92,82,72,30.14,29.79,29.47,10,5,0,41,19,55,0.52,8,Fog-Rain-Snow-Thunderstorm,350
2014-3-13,44,32,21,36,26,16,88,80,71,30.20,30.11,29.95,10,9,6,20,10,26,0.00,3,,158
2014-3-14,61,47,33,41,35,30,89,68,46,29.97,29.84,29.74,10,10,10,32,17,40,0.00,1,,229
2014-3-15,55,42,29,34,30,26,92,67,42,30.12,30.06,29.97,10,10,10,28,10,37,0.00,0,,313
2014-3-16,32,27,22,25,14,11,72,58,43,30.20,30.14,30.09,10,10,10,37,23,45,0.00,3,,46
2014-3-17,40,29,17,28,18,10,85,69,52,30.10,29.93,29.83,10,10,10,17,8,23,0.00,0,,91
2014-3-18,51,39,26,40,34,24,92,77,61,29.89,29.81,29.68,10,8,6,29,14,36,0.00,2,,137
2014-3-19,48,39,30,44,37,27,92,81,70,30.11,29.84,29.62,10,6,2,32,20,39,0.08,7,Rain,256
2014-3-20,56,42,27,35,31,25,92,67,41,30.12,30.05,29.99,10,9,6,20,10,24,0.00,2,,247
2014-3-21,70,52,33,40,36,30,89,60,31,29.98,29.87,29.74,10,10,6,23,12,31,0.00,2,,181
2014-3-22,47,38,29,36,28,23,92,69,45,30.31,30.14,29.94,10,10,10,26,13,36,0.00,4,,325
2014-3-23,37,30,23,21,16,12,69,55,40,30.44,30.38,30.30,10,10,10,22,13,27,0.00,3,,345
2014-3-24,38,29,20,20,16,11,84,60,35,30.40,30.30,30.15,10,10,10,13,4,16,0.00,3,,295
2014-3-25,34,25,16,27,19,11,88,66,43,30.30,30.13,30.03,10,7,1,29,15,36,0.01,6,Snow,295
2014-3-26,44,29,14,21,15,11,88,59,29,30.39,30.26,30.09,10,10,10,21,10,26,0.00,1,,186
2014-3-27,54,45,35,50,38,20,92,70,48,30.06,29.77,29.57,10,9,4,37,23,49,0.36,7,Rain,169
2014-3-28,55,48,40,50,38,34,96,79,61,30.16,29.91,29.58,10,10,7,30,13,40,T,7,,307
2014-3-29,41,35,29,35,32,25,92,83,73,30.27,30.16,30.10,10,6,3,22,12,27,0.02,7,Rain,11
2014-3-30,58,41,23,33,27,21,100,67,33,30.29,30.22,30.09,10,6,0,14,7,19,0.00,0,Fog,230
2014-3-31,69,53,36,41,35,32,79,53,27,30.09,29.96,29.78,10,10,9,31,18,40,T,2,,162